Weather History for KJYM - January, 2013

Change the Weather History Date:

Sunday, January 6, 2013

  Actual Average (KJXN) Record (KJXN)
Temperature  
Mean Temperature 32 °F 24 °F  
Max Temperature 35 °F 31 °F - ()
Min Temperature 29 °F 17 °F - ()
Degree Days  
Heating Degree Days 33 41  
Month to date heating degree days 246  
Since 1 July heating degree days 2794  
Cooling Degree Days 0 0  
Month to date cooling degree days 0  
Year to date cooling degree days 0  
Moisture  
Dew Point 29 °F    
Average Humidity 87    
Maximum Humidity 93    
Minimum Humidity 75    
Precipitation  
Precipitation 0.00 in 0.06 in - ()
Month to date precipitation 0.35  
Year to date precipitation 0.35  
Sea Level Pressure  
Sea Level Pressure 30.00 in    
Wind  
Wind Speed 10 mph (WSW)    
Max Wind Speed 16 mph    
Max Gust Speed 25 mph    
Visibility 7 miles    
Events Snow    
T = Trace of Precipitation, MM = Missing Value Source: NWS Daily Summary

Daily Weather History Graph

Daily Weather History Graph

Search for Another Location

Airport or City:

Trip Planner

Search our weather history database for the weather conditions in past years. The results will help you decide how hot, cold, wet, or windy it might be!

Date:

Astronomy

Jan. 06, 2013 Rise Set
Actual Time 8:06 AM EST 5:22 PM EST
Civil Twilight 7:34 AM EST 5:54 PM EST
Nautical Twilight 6:59 AM EST 6:29 PM EST
Astronomical Twilight 6:26 AM EST 7:02 PM EST
Moon 2:17 AM EST (1/6) 12:51 PM EST (1/6)
Length of Visible Light 10h 19m
Length of Day
9h 16m
Waning Crescent, 33% of the Moon is Illuminated
Jan 6
Waning Crescent
Jan 11
New
Jan 18
First Quarter
Jan 26
Full
Feb 3
Last Quarter

Hourly Weather History & Observations

Time (EST) Temp. Windchill Dew Point Humidity Pressure Visibility Wind Dir Wind Speed Gust Speed Precip Events Conditions
12:15 AM 33.3 °F 25.7 °F 30.4 °F 89% 29.99 in 10.0 mi SW 9.2 mph 17.3 mph N/A   Overcast
12:35 AM 33.3 °F 25.1 °F 30.0 °F 88% 29.99 in 10.0 mi SSW 10.4 mph - N/A   Overcast
12:54 AM 33.3 °F 24.6 °F 29.8 °F 87% 29.98 in 10.0 mi SSW 11.5 mph 16.1 mph N/A   Overcast
1:14 AM 33.3 °F 24.6 °F 29.7 °F 87% 29.97 in 7.0 mi SSW 11.5 mph 16.1 mph N/A Snow Light Snow
1:35 AM 33.6 °F 26.2 °F 29.7 °F 85% 29.96 in 10.0 mi SW 9.2 mph 17.3 mph N/A   Overcast
1:54 AM 33.6 °F 25.6 °F 29.5 °F 85% 29.95 in 10.0 mi SW 10.4 mph 16.1 mph N/A   Overcast
2:14 AM 33.6 °F 25.0 °F 29.8 °F 86% 29.95 in 7.0 mi SW 11.5 mph - N/A   Overcast
2:35 AM 33.3 °F 25.1 °F 30.0 °F 88% 29.95 in 4.0 mi SW 10.4 mph - N/A Snow Light Snow
2:54 AM 32.7 °F 24.5 °F 30.4 °F 91% 29.94 in 4.0 mi SW 10.4 mph 17.3 mph N/A Snow Light Snow
3:15 AM 33.3 °F 25.1 °F 30.7 °F 90% 29.94 in 7.0 mi SW 10.4 mph - N/A   Overcast
3:34 AM 33.3 °F 24.6 °F 30.7 °F 90% 29.94 in 7.0 mi SW 11.5 mph - N/A Snow Light Snow
3:55 AM 33.3 °F 24.6 °F 31.3 °F 92% 29.93 in 7.0 mi SW 11.5 mph - N/A   Overcast
4:14 AM 33.6 °F 26.2 °F 31.6 °F 92% 29.92 in 7.0 mi SW 9.2 mph 16.1 mph N/A   Overcast
4:35 AM 33.6 °F 26.8 °F 31.6 °F 92% 29.91 in 7.0 mi SW 8.1 mph - N/A   Overcast
4:55 AM 33.6 °F 26.8 °F 31.5 °F 92% 29.91 in 7.0 mi SSW 8.1 mph - N/A   Overcast
5:14 AM 33.6 °F 25.6 °F 31.5 °F 92% 29.90 in 7.0 mi SW 10.4 mph 17.3 mph N/A Snow Light Snow
5:35 AM 33.8 °F 25.8 °F 31.5 °F 91% 29.90 in 7.0 mi SSW 10.4 mph - N/A   Overcast
5:55 AM 34.0 °F 26.0 °F 31.3 °F 90% 29.90 in 7.0 mi SW 10.4 mph - N/A   Overcast
6:14 AM 34.0 °F 26.0 °F 31.3 °F 90% 29.90 in 7.0 mi SW 10.4 mph - N/A   Overcast
6:35 AM 34.0 °F 26.6 °F 31.1 °F 89% 29.90 in 7.0 mi SW 9.2 mph - N/A   Overcast
6:54 AM 34.0 °F 25.5 °F 30.9 °F 89% 29.89 in 7.0 mi SW 11.5 mph - N/A   Overcast
7:14 AM 34.0 °F 27.2 °F 30.7 °F 88% 29.89 in 7.0 mi SW 8.1 mph - N/A   Overcast
7:35 AM 34.2 °F 25.7 °F 30.7 °F 87% 29.89 in 7.0 mi SW 11.5 mph - N/A   Overcast
7:54 AM 34.2 °F 27.5 °F 30.9 °F 88% 29.89 in 7.0 mi SW 8.1 mph - N/A   Overcast
8:14 AM 34.2 °F 28.2 °F 30.9 °F 88% 29.89 in 7.0 mi SW 6.9 mph - N/A   Overcast
8:35 AM 34.3 °F 27.7 °F 30.9 °F 87% 29.89 in 7.0 mi WSW 8.1 mph - N/A   Overcast
8:54 AM 35.1 °F 27.9 °F 30.9 °F 85% 29.90 in 7.0 mi WSW 9.2 mph - N/A   Overcast
9:35 AM 35.2 °F 27.6 °F 30.7 °F 84% 29.90 in 7.0 mi WSW 10.4 mph - N/A   Overcast
9:54 AM 35.2 °F 28.1 °F 30.9 °F 84% 29.91 in 7.0 mi WSW 9.2 mph - N/A   Overcast
10:14 AM 35.2 °F 28.1 °F 31.1 °F 85% 29.91 in 5.0 mi WSW 9.2 mph - N/A   Overcast
10:35 AM 35.1 °F 27.4 °F 31.6 °F 87% 29.92 in 5.0 mi WSW 10.4 mph 19.6 mph N/A   Overcast
10:54 AM 34.9 °F 28.3 °F 31.8 °F 89% 29.93 in 2.5 mi WSW 8.1 mph - N/A   Overcast
11:15 AM 34.9 °F 29.0 °F 32.2 °F 90% 29.92 in 2.5 mi WSW 6.9 mph - N/A   Overcast
11:35 AM 34.9 °F 28.3 °F 32.0 °F 89% 29.92 in 4.0 mi WSW 8.1 mph - N/A   Overcast
11:54 AM 34.3 °F 28.4 °F 31.6 °F 90% 29.92 in 4.0 mi WSW 6.9 mph - N/A Snow Light Snow
12:15 PM 33.3 °F 23.7 °F 28.9 °F 84% 29.93 in 7.0 mi West 13.8 mph 19.6 mph N/A   Overcast
12:35 PM 32.7 °F 22.1 °F 26.8 °F 79% 29.92 in 10.0 mi West 16.1 mph 25.3 mph N/A   Overcast
12:54 PM 32.5 °F 23.2 °F 27.0 °F 80% 29.93 in 10.0 mi West 12.7 mph 21.9 mph N/A   Overcast
1:15 PM 32.4 °F 23.0 °F 27.7 °F 83% 29.93 in 7.0 mi West 12.7 mph - N/A   Overcast
1:34 PM 31.5 °F 22.3 °F 27.3 °F 85% 29.93 in 7.0 mi West 11.5 mph 18.4 mph N/A   Overcast
1:54 PM 31.3 °F 20.7 °F 27.7 °F 87% 29.94 in 4.0 mi West 15.0 mph 20.7 mph N/A   Overcast
2:15 PM 30.6 °F 21.2 °F 28.2 °F 91% 29.95 in 1.5 mi West 11.5 mph - N/A   Overcast
2:34 PM 30.4 °F 21.0 °F 28.6 °F 93% 29.95 in 1.5 mi West 11.5 mph 16.1 mph N/A   Overcast
2:55 PM 29.8 °F 19.8 °F 28.0 °F 93% 29.97 in 3.0 mi West 12.7 mph - N/A   Overcast
3:15 PM 29.8 °F 20.9 °F 28.0 °F 93% 29.98 in 2.5 mi West 10.4 mph - N/A   Overcast
3:34 PM 30.4 °F 21.5 °F 28.6 °F 93% 29.99 in 4.0 mi West 10.4 mph - N/A   Overcast
3:55 PM 30.6 °F 23.1 °F 28.4 °F 92% 30.00 in 4.0 mi West 8.1 mph - N/A   Overcast
4:15 PM 30.9 °F 22.2 °F 27.9 °F 88% 30.02 in 5.0 mi West 10.4 mph - N/A   Overcast
4:34 PM 31.3 °F 22.7 °F 27.1 °F 85% 30.03 in 7.0 mi West 10.4 mph - N/A   Overcast
4:55 PM 31.5 °F 22.3 °F 27.0 °F 83% 30.04 in 7.0 mi West 11.5 mph - N/A   Overcast
5:15 PM 31.1 °F 23.1 °F 27.0 °F 85% 30.05 in 7.0 mi West 9.2 mph - N/A   Overcast
5:34 PM 31.1 °F 22.4 °F 27.1 °F 85% 30.06 in 7.0 mi West 10.4 mph - N/A   Overcast
5:55 PM 30.9 °F 22.8 °F 27.5 °F 87% 30.08 in 7.0 mi West 9.2 mph - N/A   Overcast
6:14 PM 30.9 °F 21.7 °F 27.9 °F 88% 30.09 in 7.0 mi West 11.5 mph - N/A   Overcast
6:34 PM 31.5 °F 22.3 °F 28.8 °F 90% 30.10 in 7.0 mi West 11.5 mph - N/A   Overcast
6:55 PM 31.5 °F 23.5 °F 28.8 °F 90% 30.12 in 7.0 mi WNW 9.2 mph - N/A   Overcast
7:14 PM 31.8 °F 23.9 °F 28.9 °F 89% 30.13 in 10.0 mi WNW 9.2 mph - N/A   Overcast
7:35 PM 32.2 °F 24.4 °F 28.9 °F 88% 30.14 in 10.0 mi NW 9.2 mph - N/A   Overcast
7:55 PM 32.4 °F 23.5 °F 28.8 °F 87% 30.15 in 10.0 mi NW 11.5 mph - N/A   Overcast
8:14 PM 32.4 °F 26.0 °F 28.2 °F 85% 30.16 in 10.0 mi NW 6.9 mph - N/A   Overcast
8:34 PM 32.5 °F 25.5 °F 27.5 °F 82% 30.17 in 10.0 mi NW 8.1 mph - N/A   Overcast
8:54 PM 32.5 °F 24.2 °F 27.0 °F 80% 30.18 in 10.0 mi NNW 10.4 mph - N/A   Overcast
9:14 PM 32.5 °F 24.2 °F 26.4 °F 78% 30.19 in 10.0 mi NW 10.4 mph - N/A   Overcast
9:35 PM 32.5 °F 25.5 °F 25.9 °F 76% 30.19 in 10.0 mi NNW 8.1 mph - N/A   Overcast
10:15 PM 32.4 °F 24.6 °F 25.2 °F 75% 30.20 in 10.0 mi NNW 9.2 mph - N/A   Overcast
10:54 PM 32.4 °F 24.6 °F 27.5 °F 82% 30.23 in 10.0 mi WNW 9.2 mph - N/A   Overcast
11:14 PM 32.2 °F 25.0 °F 27.0 °F 81% 30.24 in 10.0 mi NW 8.1 mph - N/A   Overcast
11:35 PM 32.2 °F 25.0 °F 26.6 °F 80% 30.25 in 10.0 mi WNW 8.1 mph - N/A   Overcast
11:55 PM 31.8 °F 26.2 °F 26.1 °F 79% 30.25 in 10.0 mi WNW 5.8 mph - N/A   Overcast